GEOSCAN 2 (RS92S2)

Last updated on Sun Aug 09 2026 00:03:16 GMT+0000 (Coordinated Universal Time)

1 64890U 25155Q 26220.57747327 .00006230 00000+0 20392-3 0 9998 2 64890 97.4590 189.7500 0006251 358.0616 2.0600 15.32030507 88804
UTC large
Height (km)
Speed (km/s)
/
Latitude / Longitude
Inclination (degrees)
Orbital Period (minutes)
Azimuth
Elevation
Range (km)
Doppler Factor

Next 0 passes for location: London (51.5072 / 0.1276)

No passes found over London.
GEOSCAN 2 (RS92S2)